Date,TemperatureHighF,TemperatureAvgF,TemperatureLowF,DewpointHighF,DewpointAvgF,DewpointLowF,HumidityHigh,HumidityAvg,HumidityLow,PressureMaxIn,PressureMinIn,WindSpeedMaxMPH,WindSpeedAvgMPH,GustSpeedMaxMPH,PrecipitationSumIn
2013-1-1,73.0,62.7,53.0,-99.9,-99.9,-99.9,0,0,100,0.00,40.00,7,1,9,0.00
2013-1-2,53.0,47.3,41.0,-99.9,-99.9,-99.9,0,0,100,0.00,40.00,4,0,5,0.00
2013-1-3,46.0,39.1,32.0,-99.9,-99.9,-99.9,0,0,100,0.00,40.00,3,0,6,0.00
2013-1-4,56.0,40.0,29.0,-99.9,-99.9,-99.9,0,0,100,0.00,40.00,4,0,5,0.00
2013-1-5,49.0,43.2,35.0,-99.9,-99.9,-99.9,0,0,100,0.00,40.00,0,0,2,0.00
2013-1-6,50.0,45.1,38.0,-99.9,-99.9,-99.9,0,0,100,0.00,40.00,2,0,5,0.00
2013-1-7,58.0,41.9,31.0,-99.9,-99.9,-99.9,0,0,100,0.00,40.00,1,0,3,0.00
2013-1-8,66.0,53.9,39.0,-99.9,-99.9,-99.9,0,0,100,0.00,40.00,0,0,2,0.00
2013-1-9,68.0,63.8,56.0,-99.9,-99.9,-99.9,0,0,100,0.00,40.00,0,0,2,0.00
2013-1-10,71.0,66.8,62.0,-99.9,-99.9,-99.9,0,0,100,0.00,40.00,3,0,7,0.00
2013-1-11,79.0,69.4,60.0,-99.9,-99.9,-99.9,0,0,100,0.00,40.00,7,1,10,0.00
2013-1-12,76.0,70.2,68.0,-99.9,-99.9,-99.9,0,0,100,0.00,40.00,5,1,7,0.00
2013-1-13,76.0,71.2,59.0,-99.9,-99.9,-99.9,0,0,100,0.00,40.00,7,2,11,0.00
2013-1-14,59.0,48.6,41.0,-99.9,-99.9,-99.9,0,0,100,0.00,40.00,3,0,8,0.00
2013-1-15,54.0,47.8,42.0,-99.9,-99.9,-99.9,0,0,100,0.00,40.00,1,0,5,0.00
2013-1-16,51.0,45.1,41.0,-99.9,-99.9,-99.9,0,0,100,0.00,40.00,2,0,5,0.00
2013-1-17,48.0,39.6,34.0,-99.9,-99.9,-99.9,0,0,100,0.00,40.00,5,1,9,0.00
2013-1-18,56.0,41.0,31.0,-99.9,-99.9,-99.9,0,0,100,0.00,40.00,4,0,6,0.00
2013-1-19,61.0,43.3,29.0,-99.9,-99.9,-99.9,0,0,100,0.00,40.00,1,0,3,0.00
2013-1-20,66.0,46.0,31.0,-99.9,-99.9,-99.9,0,0,100,0.00,40.00,3,0,5,0.00
2013-1-21,66.0,47.6,32.0,-99.9,-99.9,-99.9,0,0,100,0.00,40.00,5,0,6,0.00
2013-1-22,58.0,43.8,35.0,-99.9,-99.9,-99.9,0,0,100,0.00,40.00,2,0,4,0.00
2013-1-23,67.0,47.8,30.0,-99.9,-99.9,-99.9,0,0,100,0.00,40.00,0,0,4,0.00
2013-1-24,73.0,55.6,38.0,-99.9,-99.9,-99.9,0,0,100,0.00,40.00,3,0,5,0.00
2013-1-25,71.0,57.2,44.0,-99.9,-99.9,-99.9,0,0,100,0.00,40.00,7,1,9,0.00
2013-1-26,69.0,57.3,49.0,-99.9,-99.9,-99.9,0,0,100,0.00,40.00,2,0,2,0.00
2013-1-27,71.0,56.1,42.0,-99.9,-99.9,-99.9,0,0,100,0.00,40.00,3,0,5,0.00
2013-1-28,76.0,61.7,49.0,-99.9,-99.9,-99.9,0,0,100,0.00,40.00,4,0,6,0.00
2013-1-29,76.0,69.7,65.0,-99.9,-99.9,-99.9,0,0,100,0.00,40.00,6,1,8,0.00
2013-1-30,73.0,59.5,42.0,-99.9,-99.9,-99.9,0,0,100,0.00,40.00,8,2,12,0.00
2013-1-31,49.0,39.4,32.0,-99.9,-99.9,-99.9,0,0,100,0.00,40.00,0,0,2,0.00
2013-2-1,58.0,41.9,31.0,-99.9,-99.9,-99.9,0,0,100,0.00,40.00,3,0,9,0.00
2013-2-2,67.0,45.6,27.0,-99.9,-99.9,-99.9,0,0,100,0.00,40.00,3,0,7,0.00
2013-2-3,67.0,48.7,36.0,-99.9,-99.9,-99.9,0,0,100,0.00,40.00,1,0,5,0.00
2013-2-4,62.0,48.4,34.0,-99.9,-99.9,-99.9,0,0,100,0.00,40.00,1,0,2,0.00
2013-2-5,69.0,57.7,50.0,-99.9,-99.9,-99.9,0,0,100,0.00,40.00,1,0,3,0.00
2013-2-6,73.0,59.2,49.0,-99.9,-99.9,-99.9,0,0,100,0.00,40.00,3,0,5,0.00
2013-2-7,72.0,60.6,51.0,-99.9,-99.9,-99.9,0,0,100,0.00,40.00,5,0,7,0.00
2013-2-8,72.0,57.6,47.0,-99.9,-99.9,-99.9,0,0,100,0.00,40.00,7,1,7,0.00
2013-2-9,68.0,52.8,40.0,-99.9,-99.9,-99.9,0,0,100,0.00,40.00,2,0,5,0.00
2013-2-10,70.0,63.0,51.0,-99.9,-99.9,-99.9,0,0,100,0.00,40.00,5,1,12,0.00
2013-2-11,70.0,61.3,55.0,-99.9,-99.9,-99.9,0,0,100,0.00,40.00,4,0,7,0.00
2013-2-12,61.0,57.0,54.0,-99.9,-99.9,-99.9,0,0,100,0.00,40.00,1,0,3,0.00
2013-2-13,62.0,49.6,38.0,-99.9,-99.9,-99.9,0,0,100,0.00,40.00,2,0,6,0.00
2013-2-14,58.0,43.5,34.0,-99.9,-99.9,-99.9,0,0,100,0.00,40.00,2,0,6,0.00
2013-2-15,65.0,45.7,31.0,-99.9,-99.9,-99.9,0,0,100,0.00,40.00,3,0,4,0.00
2013-2-16,48.0,41.9,28.0,-99.9,-99.9,-99.9,0,0,100,0.00,40.00,3,0,10,0.00
2013-2-17,53.0,34.8,24.0,-99.9,-99.9,-99.9,0,0,100,0.00,40.00,0,0,4,0.00
2013-2-18,65.0,50.2,29.0,-99.9,-99.9,-99.9,0,0,100,0.00,40.00,7,1,9,0.00
2013-2-19,65.0,56.6,43.0,-99.9,-99.9,-99.9,0,0,100,0.00,40.00,5,1,9,0.00
2013-2-20,56.0,44.2,35.0,-99.9,-99.9,-99.9,0,0,100,0.00,40.00,3,0,5,0.00
2013-2-21,67.0,54.1,34.0,-99.9,-99.9,-99.9,0,0,100,0.00,40.00,6,1,9,0.00
2013-2-22,69.0,63.3,58.0,-99.9,-99.9,-99.9,0,0,100,0.00,40.00,5,0,9,0.00
2013-2-23,58.0,55.7,52.0,-99.9,-99.9,-99.9,0,0,100,0.00,40.00,2,0,4,0.00
2013-2-24,71.0,56.9,44.0,-99.9,-99.9,-99.9,0,0,100,0.00,40.00,3,0,4,0.00
2013-2-25,66.0,60.4,55.0,-99.9,-99.9,-99.9,0,0,100,0.00,40.00,3,0,5,0.00
2013-2-26,64.0,53.2,44.0,-99.9,-99.9,-99.9,0,0,100,0.00,40.00,6,1,10,0.00
2013-2-27,65.0,50.4,41.0,-99.9,-99.9,-99.9,0,0,100,0.00,40.00,5,0,8,0.00
2013-2-28,58.0,45.8,35.0,-99.9,-99.9,-99.9,0,0,100,0.00,40.00,5,0,7,0.00
2013-3-1,59.0,44.9,34.0,-99.9,-99.9,-99.9,0,0,100,0.00,40.00,7,1,7,0.00
2013-3-2,45.0,36.3,28.0,-99.9,-99.9,-99.9,0,0,100,0.00,40.00,4,0,8,0.00
2013-3-3,52.0,37.1,27.0,-99.9,-99.9,-99.9,0,0,100,0.00,40.00,5,1,8,0.00
2013-3-4,67.0,48.2,28.0,-99.9,-99.9,-99.9,0,0,100,0.00,40.00,7,1,10,0.00
2013-3-5,73.0,57.9,41.0,-99.9,-99.9,-99.9,0,0,100,0.00,40.00,7,1,11,0.00
2013-3-6,56.0,42.3,33.0,-99.9,-99.9,-99.9,0,0,100,0.00,40.00,6,1,8,0.00
2013-3-7,64.0,45.0,31.0,-99.9,-99.9,-99.9,0,0,100,0.00,40.00,4,0,5,0.00
2013-3-8,71.0,49.0,31.0,-99.9,-99.9,-99.9,0,0,100,0.00,40.00,3,0,4,0.00
2013-3-9,74.0,57.3,42.0,-99.9,-99.9,-99.9,0,0,100,0.00,40.00,5,0,8,0.00
2013-3-10,75.0,63.9,54.0,-99.9,-99.9,-99.9,0,0,100,0.00,40.00,7,1,11,0.00
2013-3-11,66.0,54.5,39.0,-99.9,-99.9,-99.9,0,0,100,0.00,40.00,7,1,7,0.00
2013-3-12,52.0,40.9,35.0,-99.9,-99.9,-99.9,0,0,100,0.00,40.00,1,0,5,0.00
2013-3-13,50.0,38.6,33.0,-99.9,-99.9,-99.9,0,0,100,0.00,40.00,4,0,4,0.00
2013-3-14,47.0,39.6,36.0,-99.9,-99.9,-99.9,0,0,100,0.00,40.00,1,0,4,0.00
2013-3-15,76.0,53.4,33.0,-99.9,-99.9,-99.9,0,0,100,0.00,40.00,6,1,9,0.00
2013-3-16,75.0,57.7,42.0,-99.9,-99.9,-99.9,0,0,100,0.00,40.00,5,1,9,0.00
2013-3-17,74.0,58.7,46.0,-99.9,-99.9,-99.9,0,0,100,0.00,40.00,4,0,6,0.00
2013-3-18,82.0,68.4,59.0,-99.9,-99.9,-99.9,0,0,100,0.00,40.00,6,1,8,0.00
2013-3-19,75.0,62.8,52.0,-99.9,-99.9,-99.9,0,0,100,0.00,40.00,4,1,5,0.00
2013-3-20,63.0,53.4,39.0,-99.9,-99.9,-99.9,0,0,100,0.00,40.00,3,0,6,0.00
2013-3-21,60.0,42.2,33.0,-99.9,-99.9,-99.9,0,0,100,0.00,40.00,1,0,4,0.00
2013-3-22,68.0,56.9,47.0,-99.9,-99.9,-99.9,0,0,100,0.00,40.00,5,0,8,0.00
2013-3-23,73.0,64.5,59.0,-99.9,-99.9,-99.9,0,0,100,0.00,40.00,4,0,7,0.00
2013-3-24,79.0,65.3,56.0,-99.9,-99.9,-99.9,0,0,100,0.00,40.00,4,0,9,0.00
2013-3-25,44.0,39.7,34.0,-99.9,-99.9,-99.9,0,0,100,0.00,40.00,2,0,5,0.00
2013-3-26,45.0,33.7,28.0,-99.9,-99.9,-99.9,0,0,100,0.00,40.00,1,0,3,0.00
2013-3-27,57.0,37.4,26.0,-99.9,-99.9,-99.9,0,0,100,0.00,40.00,2,0,6,0.00
2013-3-28,70.0,47.5,29.0,-99.9,-99.9,-99.9,0,0,100,0.00,40.00,2,0,5,0.00
2013-3-29,75.0,53.1,34.0,-99.9,-99.9,-99.9,0,0,100,0.00,40.00,4,0,8,0.00
2013-3-30,76.0,59.7,44.0,-99.9,-99.9,-99.9,0,0,100,0.00,40.00,9,1,9,0.00
2013-3-31,81.0,62.6,49.0,-99.9,-99.9,-99.9,0,0,100,0.00,40.00,5,1,9,0.00
2013-4-1,73.0,60.1,51.0,-99.9,-99.9,-99.9,0,0,100,0.00,40.00,3,0,6,0.00
2013-4-2,80.0,57.6,42.0,-99.9,-99.9,-99.9,0,0,100,0.00,40.00,2,0,4,0.00
2013-4-3,60.0,55.2,51.0,-99.9,-99.9,-99.9,0,0,100,0.00,40.00,3,0,13,0.00
2013-4-4,69.0,56.9,52.0,-99.9,-99.9,-99.9,0,0,100,0.00,40.00,5,0,5,0.00
2013-4-5,67.0,54.6,46.0,-99.9,-99.9,-99.9,0,0,100,0.00,40.00,6,1,8,0.00
2013-4-6,76.0,55.3,37.0,-99.9,-99.9,-99.9,0,0,100,0.00,40.00,2,0,6,0.00
2013-4-7,78.0,59.0,41.0,-99.9,-99.9,-99.9,0,0,100,0.00,40.00,5,0,8,0.00
2013-4-8,81.0,68.2,54.0,-99.9,-99.9,-99.9,0,0,100,0.00,40.00,8,1,8,0.00
2013-4-9,83.0,73.5,68.0,-99.9,-99.9,-99.9,0,0,100,0.00,40.00,4,1,10,0.00
2013-4-10,81.0,74.8,62.0,-99.9,-99.9,-99.9,0,0,100,0.00,40.00,6,2,8,0.00
2013-4-11,82.0,70.6,58.0,-99.9,-99.9,-99.9,0,0,100,0.00,40.00,11,1,14,0.00
2013-4-12,72.0,59.1,49.0,-99.9,-99.9,-99.9,0,0,100,0.00,40.00,5,1,9,0.00
2013-4-13,80.0,60.8,42.0,-99.9,-99.9,-99.9,0,0,100,0.00,40.00,4,0,5,0.00
2013-4-14,65.0,59.7,56.0,-99.9,-99.9,-99.9,0,0,100,0.00,40.00,3,0,5,0.00
2013-4-15,78.0,69.6,61.0,-99.9,-99.9,-99.9,0,0,100,0.00,40.00,3,0,4,0.00
2013-4-16,84.0,73.8,66.0,-99.9,-99.9,-99.9,0,0,100,0.00,40.00,2,0,6,0.00
2013-4-17,84.0,72.4,63.0,-99.9,-99.9,-99.9,0,0,100,0.00,40.00,3,0,6,0.00
2013-4-18,81.0,71.8,62.0,-99.9,-99.9,-99.9,0,0,100,0.00,40.00,4,1,7,0.00
2013-4-19,75.0,54.9,42.0,-99.9,-99.9,-99.9,0,0,100,0.00,40.00,4,0,9,0.00
2013-4-20,68.0,50.4,35.0,-99.9,-99.9,-99.9,0,0,100,0.00,40.00,3,0,6,0.00
2013-4-21,74.0,56.2,41.0,-99.9,-99.9,-99.9,0,0,100,0.00,40.00,2,0,6,0.00
2013-4-22,78.0,62.3,46.0,-99.9,-99.9,-99.9,0,0,100,0.00,40.00,2,0,4,0.00
2013-4-23,80.0,65.1,52.0,-99.9,-99.9,-99.9,0,0,100,0.00,40.00,2,0,4,0.00
2013-4-24,71.0,65.6,58.0,-99.9,-99.9,-99.9,0,0,100,0.00,40.00,0,0,0,0.00
2013-4-25,72.0,59.6,52.0,-99.9,-99.9,-99.9,0,0,100,0.00,40.00,3,0,6,0.00
2013-4-26,81.0,62.9,45.0,-99.9,-99.9,-99.9,0,0,100,0.00,40.00,3,0,3,0.00
2013-4-27,82.0,68.8,56.0,-99.9,-99.9,-99.9,0,0,100,0.00,40.00,3,0,5,0.00
2013-4-28,78.0,68.8,64.0,-99.9,-99.9,-99.9,0,0,100,0.00,40.00,3,0,4,0.00
2013-4-29,82.0,69.6,63.0,-99.9,-99.9,-99.9,0,0,100,0.00,40.00,1,0,3,0.00
2013-4-30,82.0,68.0,61.0,-99.9,-99.9,-99.9,0,0,100,0.00,40.00,2,0,10,0.00
2013-5-1,70.0,66.3,62.0,-99.9,-99.9,-99.9,0,0,100,0.00,40.00,6,1,8,0.00
2013-5-2,71.0,65.8,62.0,-99.9,-99.9,-99.9,0,0,100,0.00,40.00,3,0,5,0.00
2013-5-3,71.0,62.5,47.0,-99.9,-99.9,-99.9,0,0,100,0.00,40.00,4,0,7,0.00
2013-5-4,69.0,54.0,42.0,-99.9,-99.9,-99.9,0,0,100,0.00,40.00,3,0,6,0.00
2013-5-5,64.0,54.4,46.0,-99.9,-99.9,-99.9,0,0,100,0.00,40.00,7,0,7,0.00
2013-5-6,71.0,56.6,42.0,-99.9,-99.9,-99.9,0,0,100,0.00,40.00,2,0,5,0.00
2013-5-7,75.0,61.1,47.0,-99.9,-99.9,-99.9,0,0,100,0.00,40.00,1,0,4,0.00
2013-5-8,82.0,65.6,51.0,-99.9,-99.9,-99.9,0,0,100,0.00,40.00,0,0,0,0.00
2013-5-9,83.0,67.8,54.0,-99.9,-99.9,-99.9,0,0,100,0.00,40.00,0,0,0,0.00
2013-5-10,74.0,65.0,62.0,-99.9,-99.9,-99.9,0,0,100,0.00,40.00,2,0,6,0.00
2013-5-11,73.0,64.8,58.0,-99.9,-99.9,-99.9,0,0,100,0.00,40.00,0,0,0,0.00
2013-5-12,78.0,66.5,57.0,-99.9,-99.9,-99.9,0,0,100,0.00,40.00,1,0,4,0.00
2013-5-13,77.0,61.3,46.0,-99.9,-99.9,-99.9,0,0,100,0.00,40.00,4,0,5,0.00
2013-5-14,85.0,65.7,47.0,-99.9,-99.9,-99.9,0,0,100,0.00,40.00,2,0,4,0.00
2013-5-15,86.0,68.1,53.0,-99.9,-99.9,-99.9,0,0,100,0.00,40.00,2,0,3,0.00
2013-5-16,82.0,65.0,61.0,-99.9,-99.9,-99.9,0,0,100,0.00,40.00,3,0,5,0.00
2013-5-17,83.0,71.6,64.0,-99.9,-99.9,-99.9,0,0,100,0.00,40.00,3,0,6,0.00
2013-5-18,84.0,76.6,70.0,-99.9,-99.9,-99.9,0,0,100,0.00,40.00,3,0,4,0.00
2013-5-19,81.0,75.8,71.0,-99.9,-99.9,-99.9,0,0,100,0.00,40.00,2,0,4,0.00
2013-5-20,90.0,76.9,69.0,-99.9,-99.9,-99.9,0,0,100,0.00,40.00,2,0,4,0.00
2013-5-21,87.0,75.4,66.0,-99.9,-99.9,-99.9,0,0,100,0.00,40.00,3,0,5,0.00
2013-5-22,81.0,71.3,63.0,-99.9,-99.9,-99.9,0,0,100,0.00,40.00,0,0,4,0.00
2013-5-23,90.0,73.7,62.0,-99.9,-99.9,-99.9,0,0,100,0.00,40.00,1,0,3,0.00
2013-5-24,85.0,72.1,62.0,-99.9,-99.9,-99.9,0,0,100,0.00,40.00,2,0,4,0.00
2013-5-25,83.0,62.9,53.0,-99.9,-99.9,-99.9,0,0,100,0.00,40.00,0,0,1,0.00
2013-5-26,85.0,69.3,57.0,-99.9,-99.9,-99.9,0,0,100,0.00,40.00,1,0,2,0.00
2013-5-27,81.0,68.2,62.0,-99.9,-99.9,-99.9,0,0,100,0.00,40.00,1,0,3,0.00
2013-5-28,85.0,69.6,57.0,-99.9,-99.9,-99.9,0,0,100,0.00,40.00,2,0,5,0.00
2013-5-29,87.0,76.1,66.0,-99.9,-99.9,-99.9,0,0,100,0.00,40.00,4,0,7,0.00
2013-5-30,86.0,77.4,71.0,-99.9,-99.9,-99.9,0,0,100,0.00,40.00,4,0,6,0.00
2013-5-31,87.0,77.3,71.0,-99.9,-99.9,-99.9,0,0,100,0.00,40.00,5,0,6,0.00
2013-6-1,86.0,76.9,69.0,-99.9,-99.9,-99.9,0,0,100,0.00,40.00,3,0,4,0.00
2013-6-2,94.0,78.0,69.0,-99.9,-99.9,-99.9,0,0,100,0.00,40.00,4,0,4,0.00
2013-6-3,90.0,74.9,68.0,-99.9,-99.9,-99.9,0,0,100,0.00,40.00,0,0,3,0.00
2013-6-4,94.0,77.8,68.0,-99.9,-99.9,-99.9,0,0,100,0.00,40.00,2,0,3,0.00
2013-6-5,90.0,77.3,67.0,-99.9,-99.9,-99.9,0,0,100,0.00,40.00,2,0,3,0.00
2013-6-6,87.0,73.0,63.0,-99.9,-99.9,-99.9,0,0,100,0.00,40.00,2,0,6,0.00
2013-6-7,83.0,72.2,68.0,-99.9,-99.9,-99.9,0,0,100,0.00,40.00,0,0,3,0.00
2013-6-8,85.0,74.8,66.0,-99.9,-99.9,-99.9,0,0,100,0.00,40.00,2,0,5,0.00
2013-6-9,78.0,72.7,68.0,-99.9,-99.9,-99.9,0,0,100,0.00,40.00,3,0,5,0.00
2013-6-10,83.0,74.3,69.0,-99.9,-99.9,-99.9,0,0,100,0.00,40.00,0,0,1,0.00
2013-6-11,94.0,79.9,71.0,-99.9,-99.9,-99.9,0,0,100,0.00,40.00,0,0,0,0.00
2013-6-12,94.0,80.6,70.0,-99.9,-99.9,-99.9,0,0,100,0.00,40.00,0,0,2,0.00
2013-6-13,94.0,81.5,73.0,-99.9,-99.9,-99.9,0,0,100,0.00,40.00,2,0,3,0.00
2013-6-14,91.0,80.0,71.0,-99.9,-99.9,-99.9,0,0,100,0.00,40.00,3,0,5,0.00
2013-6-15,92.0,79.0,66.0,-99.9,-99.9,-99.9,0,0,100,0.00,40.00,0,0,2,0.00
2013-6-16,94.0,81.5,73.0,-99.9,-99.9,-99.9,0,0,100,0.00,40.00,1,0,2,0.00
2013-6-17,91.0,81.1,73.0,-99.9,-99.9,-99.9,0,0,100,0.00,40.00,3,0,4,0.00
2013-6-18,90.0,79.8,71.0,-99.9,-99.9,-99.9,0,0,100,0.00,40.00,2,0,5,0.00
2013-6-19,81.0,74.6,69.0,-99.9,-99.9,-99.9,0,0,100,0.00,40.00,0,0,1,0.00
2013-6-20,91.0,75.8,67.0,-99.9,-99.9,-99.9,0,0,100,0.00,40.00,2,0,4,0.00
2013-6-22,91.0,84.5,75.0,-99.9,-99.9,-99.9,0,0,100,0.00,40.00,2,0,4,0.00
2013-6-23,90.0,76.1,69.0,-99.9,-99.9,-99.9,0,0,100,0.00,40.00,1,0,6,0.00
2013-6-24,84.0,77.1,72.0,-99.9,-99.9,-99.9,0,0,100,0.00,40.00,0,0,4,0.00
2013-6-25,94.0,78.7,68.0,-99.9,-99.9,-99.9,0,0,100,0.00,40.00,2,0,4,0.00
2013-6-26,92.0,80.2,70.0,-99.9,-99.9,-99.9,0,0,100,0.00,40.00,3,0,4,0.00
2013-6-27,92.0,81.3,72.0,-99.9,-99.9,-99.9,0,0,100,0.00,40.00,2,0,5,0.00
2013-6-28,95.0,83.0,73.0,-99.9,-99.9,-99.9,0,0,100,0.00,40.00,3,0,5,0.00
2013-6-29,91.0,79.5,71.0,-99.9,-99.9,-99.9,0,0,100,0.00,40.00,2,0,3,0.00
2013-6-30,90.0,77.8,70.0,-99.9,-99.9,-99.9,0,0,100,0.00,40.00,0,0,2,0.00
2013-7-1,90.0,75.6,68.0,-99.9,-99.9,-99.9,0,0,100,0.00,40.00,1,0,2,0.00
2013-7-2,90.0,75.0,64.0,-99.9,-99.9,-99.9,0,0,100,0.00,40.00,0,0,0,0.00
2013-7-3,85.0,73.6,70.0,-99.9,-99.9,-99.9,0,0,100,0.00,40.00,3,0,4,0.00
2013-7-4,85.0,75.5,71.0,-99.9,-99.9,-99.9,0,0,100,0.00,40.00,0,0,3,0.00
2013-7-5,76.0,73.6,71.0,-99.9,-99.9,-99.9,0,0,100,0.00,40.00,0,0,0,0.00
2013-7-6,77.0,72.4,70.0,-99.9,-99.9,-99.9,0,0,100,0.00,40.00,0,0,0,0.00
2013-7-7,79.0,74.4,73.0,-99.9,-99.9,-99.9,0,0,100,0.00,40.00,0,0,0,0.00
2013-7-8,82.0,75.0,72.0,-99.9,-99.9,-99.9,0,0,100,0.00,40.00,0,0,0,0.00
2013-7-9,89.0,77.6,69.0,-99.9,-99.9,-99.9,0,0,100,0.00,40.00,2,0,3,0.00
2013-7-10,89.0,74.9,71.0,-99.9,-99.9,-99.9,0,0,100,0.00,40.00,0,0,1,0.00
2013-7-11,79.0,74.5,71.0,-99.9,-99.9,-99.9,0,0,100,0.00,40.00,0,0,0,0.00
2013-7-12,88.0,74.3,69.0,-99.9,-99.9,-99.9,0,0,100,0.00,40.00,0,0,2,0.00
2013-7-13,91.0,75.0,68.0,-99.9,-99.9,-99.9,0,0,100,0.00,40.00,3,0,5,0.00
2013-7-14,90.0,76.9,68.0,-99.9,-99.9,-99.9,0,0,100,0.00,40.00,3,0,4,0.00
2013-7-15,86.0,75.7,69.0,-99.9,-99.9,-99.9,0,0,100,0.00,40.00,4,0,7,0.00
2013-7-16,89.0,77.8,71.0,-99.9,-99.9,-99.9,0,0,100,0.00,40.00,4,0,5,0.00
2013-7-17,91.0,79.5,70.0,-99.9,-99.9,-99.9,0,0,100,0.00,40.00,2,0,5,0.00
2013-7-18,91.0,78.0,72.0,-99.9,-99.9,-99.9,0,0,100,0.00,40.00,0,0,1,0.00
2013-7-19,89.0,76.2,68.0,-99.9,-99.9,-99.9,0,0,100,0.00,40.00,0,0,2,0.00
2013-7-20,83.0,76.0,71.0,-99.9,-99.9,-99.9,0,0,100,0.00,40.00,0,0,0,0.00
2013-7-21,85.0,75.9,72.0,-99.9,-99.9,-99.9,0,0,100,0.00,40.00,2,0,4,0.00
2013-7-22,86.0,74.1,71.0,-99.9,-99.9,-99.9,0,0,100,0.00,40.00,2,0,3,0.00
2013-7-23,86.0,74.3,70.0,-99.9,-99.9,-99.9,0,0,100,0.00,40.00,4,0,7,0.00
2013-7-24,84.0,75.2,71.0,-99.9,-99.9,-99.9,0,0,100,0.00,40.00,0,0,1,0.00
2013-7-25,82.0,74.3,71.0,-99.9,-99.9,-99.9,0,0,100,0.00,40.00,0,0,0,0.00
2013-7-26,84.0,73.5,68.0,-99.9,-99.9,-99.9,0,0,100,0.00,40.00,0,0,0,0.00
2013-7-27,79.0,74.3,70.0,-99.9,-99.9,-99.9,0,0,100,0.00,40.00,0,0,0,0.00
2013-7-28,80.0,74.8,71.0,-99.9,-99.9,-99.9,0,0,100,0.00,40.00,0,0,0,0.00
2013-7-29,92.0,78.0,72.0,-99.9,-99.9,-99.9,0,0,100,0.00,40.00,0,0,0,0.00
2013-7-30,80.0,75.0,72.0,-99.9,-99.9,-99.9,0,0,100,0.00,40.00,0,0,0,0.00
2013-7-31,87.0,77.7,72.0,-99.9,-99.9,-99.9,0,0,100,0.00,40.00,0,0,0,0.00
2013-8-1,91.0,77.1,73.0,-99.9,-99.9,-99.9,0,0,100,0.00,40.00,4,0,7,0.00
2013-8-2,86.0,74.8,68.0,-99.9,-99.9,-99.9,0,0,100,0.00,40.00,0,0,0,0.00
2013-8-3,89.0,77.5,69.0,-99.9,-99.9,-99.9,0,0,100,0.00,40.00,0,0,0,0.00
2013-8-4,92.0,80.5,73.0,-99.9,-99.9,-99.9,0,0,100,0.00,40.00,0,0,3,0.00
2013-8-5,94.0,77.1,72.0,-99.9,-99.9,-99.9,0,0,100,0.00,40.00,2,0,3,0.00
2013-8-6,92.0,78.9,71.0,-99.9,-99.9,-99.9,0,0,100,0.00,40.00,2,0,5,0.00
2013-8-7,90.0,77.2,70.0,-99.9,-99.9,-99.9,0,0,100,0.00,40.00,0,0,0,0.00
2013-8-8,92.0,79.7,73.0,-99.9,-99.9,-99.9,0,0,100,0.00,40.00,0,0,0,0.00
2013-8-9,88.0,79.8,75.0,-99.9,-99.9,-99.9,0,0,100,0.00,40.00,1,0,4,0.00
2013-8-10,89.0,78.6,71.0,-99.9,-99.9,-99.9,0,0,100,0.00,40.00,0,0,0,0.00
2013-8-11,90.0,77.4,71.0,-99.9,-99.9,-99.9,0,0,100,0.00,40.00,0,0,0,0.00
2013-8-12,82.0,76.1,71.0,-99.9,-99.9,-99.9,0,0,100,0.00,40.00,0,0,0,0.00
2013-8-13,88.0,75.3,71.0,-99.9,-99.9,-99.9,0,0,100,0.00,40.00,0,0,2,0.00
2013-8-18,74.0,71.3,69.0,-99.9,-99.9,-99.9,0,0,100,0.00,40.00,0,0,1,0.00
2013-8-19,81.0,70.1,71.0,-99.9,-99.9,-99.9,0,0,100,0.00,40.00,0,0,0,0.00
2013-8-20,85.0,73.6,68.0,-99.9,-99.9,-99.9,0,0,100,0.00,40.00,0,0,0,0.00
2013-8-21,86.0,76.4,70.0,-99.9,-99.9,-99.9,0,0,100,0.00,40.00,0,0,2,0.00
2013-8-22,89.0,77.9,68.0,-99.9,-99.9,-99.9,0,0,100,0.00,40.00,2,0,4,0.00
2013-8-23,84.0,76.7,70.0,-99.9,-99.9,-99.9,0,0,100,0.00,40.00,0,0,3,0.00
2013-8-24,83.0,75.7,69.0,-99.9,-99.9,-99.9,0,0,100,0.00,40.00,0,0,0,0.00
2013-8-30,69.0,69.0,69.0,-99.9,-99.9,-99.9,0,0,100,0.00,40.00,0,0,0,0.00
2013-9-1,75.0,73.5,73.0,-99.9,-99.9,-99.9,0,0,100,0.00,40.00,0,0,0,0.00
2013-9-2,89.0,77.9,70.0,-99.9,-99.9,-99.9,0,0,100,0.00,40.00,0,0,1,0.00
2013-9-3,92.0,76.1,71.0,-99.9,-99.9,-99.9,0,0,100,0.00,40.00,0,0,0,0.00
2013-9-4,85.0,74.9,68.0,-99.9,-99.9,-99.9,0,0,100,0.00,40.00,0,0,0,0.00
2013-9-5,74.0,72.2,70.0,-99.9,-99.9,-99.9,0,0,100,0.00,40.00,0,0,0,0.00
2013-9-6,78.0,73.1,69.0,-99.9,-99.9,-99.9,0,0,100,0.00,40.00,0,0,0,0.00
2013-9-7,75.0,70.5,65.0,-99.9,-99.9,-99.9,0,0,100,0.00,40.00,0,0,0,0.00
2013-9-8,79.0,73.4,66.0,-99.9,-99.9,-99.9,0,0,100,0.00,40.00,0,0,0,0.00
2013-9-9,85.0,73.9,68.0,-99.9,-99.9,-99.9,0,0,100,0.00,40.00,0,0,0,0.00
2013-9-10,90.0,76.9,69.0,-99.9,-99.9,-99.9,0,0,100,0.00,40.00,1,0,4,0.00
2013-9-11,89.0,77.0,68.0,-99.9,-99.9,-99.9,0,0,100,0.00,40.00,2,0,4,0.00
2013-9-12,90.0,76.4,66.0,-99.9,-99.9,-99.9,0,0,100,0.00,40.00,0,0,0,0.00
2013-9-16,90.0,77.2,67.0,-99.9,-99.9,-99.9,0,0,100,0.00,40.00,2,0,2,0.00
2013-9-17,91.0,78.6,68.0,-99.9,-99.9,-99.9,0,0,100,0.00,40.00,3,0,3,0.00
2013-9-18,75.0,73.3,73.0,-99.9,-99.9,-99.9,0,0,100,0.00,40.00,0,0,0,0.00
2013-9-19,89.0,78.0,71.0,-99.9,-99.9,-99.9,0,0,100,0.00,40.00,1,0,4,0.00
2013-9-20,87.0,76.4,68.0,-99.9,-99.9,-99.9,0,0,100,0.00,40.00,1,0,4,0.00
2013-9-21,76.0,72.6,69.0,-99.9,-99.9,-99.9,0,0,100,0.00,40.00,0,0,0,0.00
2013-9-22,77.0,68.6,66.0,-99.9,-99.9,-99.9,0,0,100,0.00,40.00,0,0,3,0.00
2013-9-23,85.0,75.3,63.0,-99.9,-99.9,-99.9,0,0,100,0.00,40.00,0,0,0,0.00
2013-9-24,83.0,74.4,69.0,-99.9,-99.9,-99.9,0,0,100,0.00,40.00,0,0,0,0.00
2013-9-25,83.0,74.9,70.0,-99.9,-99.9,-99.9,0,0,100,0.00,40.00,0,0,2,0.00
2013-9-26,86.0,73.5,65.0,-99.9,-99.9,-99.9,0,0,100,0.00,40.00,0,0,0,0.00
2013-9-27,82.0,72.7,65.0,-99.9,-99.9,-99.9,0,0,100,0.00,40.00,0,0,0,0.00
2013-9-28,81.0,65.5,57.0,-99.9,-99.9,-99.9,0,0,100,0.00,40.00,0,0,0,0.00
2013-9-29,80.0,67.7,58.0,-99.9,-99.9,-99.9,0,0,100,0.00,40.00,0,0,0,0.00
2013-9-30,79.0,71.5,66.0,-99.9,-99.9,-99.9,0,0,100,0.00,40.00,0,0,0,0.00
2013-10-1,75.0,71.9,70.0,-99.9,-99.9,-99.9,0,0,100,0.00,40.00,0,0,0,0.00
2013-10-2,80.0,72.6,68.0,-99.9,-99.9,-99.9,0,0,100,0.00,40.00,0,0,0,0.00
2013-10-3,85.0,75.8,69.0,-99.9,-99.9,-99.9,0,0,100,0.00,40.00,0,0,0,0.00
2013-10-4,87.0,74.9,69.0,-99.9,-99.9,-99.9,0,0,100,0.00,40.00,0,0,0,0.00
2013-10-5,84.0,74.4,69.0,-99.9,-99.9,-99.9,0,0,100,0.00,40.00,0,0,0,0.00
2013-10-6,76.0,72.1,65.0,-99.9,-99.9,-99.9,0,0,100,0.00,40.00,0,0,1,0.00
2013-10-7,73.0,62.5,59.0,-99.9,-99.9,-99.9,0,0,100,0.00,40.00,4,0,4,0.00
2013-10-8,75.0,59.6,52.0,-99.9,-99.9,-99.9,0,0,100,0.00,40.00,0,0,0,0.00
2013-10-9,77.0,68.0,60.0,-99.9,-99.9,-99.9,0,0,100,0.00,40.00,0,0,0,0.00
2013-10-10,81.0,69.0,64.0,-99.9,-99.9,-99.9,0,0,100,0.00,40.00,0,0,0,0.00
2013-10-11,84.0,69.3,59.0,-99.9,-99.9,-99.9,0,0,100,0.00,40.00,0,0,0,0.00
2013-10-12,84.0,70.2,60.0,-99.9,-99.9,-99.9,0,0,100,0.00,40.00,0,0,0,0.00
2013-10-13,83.0,72.1,64.0,-99.9,-99.9,-99.9,0,0,100,0.00,40.00,0,0,0,0.00
2013-10-14,83.0,69.1,60.0,-99.9,-99.9,-99.9,0,0,100,0.00,40.00,0,0,0,0.00
2013-10-15,82.0,69.1,62.0,-99.9,-99.9,-99.9,0,0,100,0.00,40.00,0,0,0,0.00
2013-10-16,84.0,71.5,60.0,-99.9,-99.9,-99.9,0,0,100,0.00,40.00,0,0,0,0.00
2013-10-17,79.0,72.2,65.0,-99.9,-99.9,-99.9,0,0,100,0.00,40.00,0,0,0,0.00
2013-10-18,73.0,65.1,62.0,-99.9,-99.9,-99.9,0,0,100,0.00,40.00,0,0,0,0.00
2013-10-19,67.0,60.9,56.0,-99.9,-99.9,-99.9,0,0,100,0.00,40.00,0,0,0,0.00
2013-10-20,70.0,58.9,52.0,-99.9,-99.9,-99.9,0,0,100,0.00,40.00,0,0,0,0.00
2013-10-21,70.0,60.1,51.0,-99.9,-99.9,-99.9,0,0,100,0.00,40.00,0,0,0,0.00
2013-10-22,76.0,65.2,57.0,-99.9,-99.9,-99.9,0,0,100,0.00,40.00,0,0,0,0.00
2013-10-23,66.0,53.7,47.0,-99.9,-99.9,-99.9,0,0,100,0.00,40.00,0,0,5,0.00
2013-10-24,72.0,51.3,40.0,-99.9,-99.9,-99.9,0,0,100,0.00,40.00,0,0,1,0.00
2013-10-25,58.0,50.5,42.0,-99.9,-99.9,-99.9,0,0,100,0.00,40.00,0,0,3,0.00
2013-10-26,56.0,43.5,35.0,-99.9,-99.9,-99.9,0,0,100,0.00,40.00,0,0,0,0.00
2013-10-27,72.0,55.9,42.0,-99.9,-99.9,-99.9,0,0,100,0.00,40.00,0,0,0,0.00
2013-10-28,79.0,63.4,51.0,-99.9,-99.9,-99.9,0,0,100,0.00,40.00,0,0,1,0.00
2013-10-29,78.0,63.5,49.0,-99.9,-99.9,-99.9,0,0,100,0.00,40.00,0,0,2,0.00
2013-10-30,78.0,64.0,51.0,-99.9,-99.9,-99.9,0,0,100,0.00,40.00,2,0,2,0.00
2013-11-7,65.0,57.1,49.0,-99.9,-99.9,-99.9,0,0,100,0.00,40.00,0,0,6,0.00
2013-11-8,58.0,44.4,38.0,-99.9,-99.9,-99.9,0,0,100,0.00,40.00,0,0,5,0.00
2013-11-9,70.0,52.6,38.0,-99.9,-99.9,-99.9,0,0,100,0.00,40.00,0,0,2,0.00
2013-11-10,72.0,59.6,48.0,-99.9,-99.9,-99.9,0,0,100,0.00,40.00,2,0,3,0.00
2013-11-11,75.0,56.2,41.0,-99.9,-99.9,-99.9,0,0,100,0.00,40.00,0,0,0,0.00
2013-11-12,69.0,51.8,42.0,-99.9,-99.9,-99.9,0,0,100,0.00,40.00,4,1,10,0.00
2013-11-13,38.0,34.5,32.0,-99.9,-99.9,-99.9,0,0,100,0.00,40.00,0,0,5,0.00
2013-11-18,62.0,59.5,56.0,-99.9,-99.9,-99.9,0,0,100,0.00,40.00,1,0,5,0.00
2013-11-19,60.0,52.1,39.0,-99.9,-99.9,-99.9,0,0,100,0.00,40.00,2,0,6,0.00
2013-11-20,68.0,53.4,35.0,-99.9,-99.9,-99.9,0,0,100,0.00,40.00,0,0,0,0.00
2013-11-21,69.0,59.1,49.0,-99.9,-99.9,-99.9,0,0,100,0.00,40.00,0,0,0,0.00
2013-11-22,75.0,66.7,56.0,-99.9,-99.9,-99.9,0,0,100,0.00,40.00,0,0,0,0.00
2013-11-23,65.0,56.2,46.0,-99.9,-99.9,-99.9,0,0,100,0.00,40.00,4,0,8,0.00
2013-11-24,46.0,41.0,38.0,-99.9,-99.9,-99.9,0,0,100,0.00,40.00,4,0,7,0.00
2013-11-25,54.0,46.5,36.0,-99.9,-99.9,-99.9,0,0,100,0.00,40.00,0,0,3,0.00
2013-11-26,60.0,49.9,43.0,-99.9,-99.9,-99.9,0,0,100,0.00,40.00,0,0,6,0.00
2013-11-27,42.0,32.7,28.0,-99.9,-99.9,-99.9,0,0,100,0.00,40.00,0,0,4,0.00
2013-11-28,30.0,27.4,25.0,-99.9,-99.9,-99.9,0,0,100,0.00,40.00,0,0,0,0.00
2013-11-29,49.0,32.8,24.0,-99.9,-99.9,-99.9,0,0,100,0.00,40.00,0,0,2,0.00
2013-11-30,52.0,34.1,27.0,-99.9,-99.9,-99.9,0,0,100,0.00,40.00,0,0,0,0.00
2013-12-1,60.0,46.2,33.0,-99.9,-99.9,-99.9,0,0,100,0.00,40.00,0,0,0,0.00
2013-12-2,71.0,56.6,42.0,-99.9,-99.9,-99.9,0,0,100,0.00,40.00,0,0,3,0.00
2013-12-3,72.0,63.7,52.0,-99.9,-99.9,-99.9,0,0,100,0.00,40.00,5,0,5,0.00
2013-12-4,79.0,71.3,67.0,-99.9,-99.9,-99.9,0,0,100,0.00,40.00,4,0,8,0.00
2013-12-5,77.0,73.4,71.0,-99.9,-99.9,-99.9,0,0,100,0.00,40.00,5,0,6,0.00
2013-12-6,80.0,70.9,48.0,-99.9,-99.9,-99.9,0,0,100,0.00,40.00,6,1,9,0.00
2013-12-7,47.0,40.0,39.0,-99.9,-99.9,-99.9,0,0,100,0.00,40.00,7,0,7,0.00
2013-12-8,56.0,45.8,41.0,-99.9,-99.9,-99.9,0,0,100,0.00,40.00,0,0,0,0.00
2013-12-9,61.0,55.4,52.0,-99.9,-99.9,-99.9,0,0,100,0.00,40.00,0,0,3,0.00
2013-12-10,52.0,41.6,32.0,-99.9,-99.9,-99.9,0,0,100,0.00,40.00,6,0,6,0.00
2013-12-11,59.0,43.7,31.0,-99.9,-99.9,-99.9,0,0,100,0.00,40.00,1,0,3,0.00
2013-12-12,52.0,40.7,30.0,-99.9,-99.9,-99.9,0,0,100,0.00,40.00,4,0,7,0.00
2013-12-13,57.0,43.6,27.0,-99.9,-99.9,-99.9,0,0,100,0.00,40.00,0,0,1,0.00
2013-12-14,74.0,59.3,49.0,-99.9,-99.9,-99.9,0,0,100,0.00,40.00,3,0,5,0.00
2013-12-15,47.0,41.1,29.0,-99.9,-99.9,-99.9,0,0,100,0.00,40.00,4,1,6,0.00
2013-12-16,49.0,34.5,27.0,-99.9,-99.9,-99.9,0,0,100,0.00,40.00,0,0,3,0.00
2013-12-17,58.0,36.8,28.0,-99.9,-99.9,-99.9,0,0,100,0.00,40.00,0,0,0,0.00
2013-12-18,64.0,44.9,30.0,-99.9,-99.9,-99.9,0,0,100,0.00,40.00,0,0,3,0.00
2013-12-27,58.0,47.1,35.0,-99.9,-99.9,-99.9,0,0,100,0.00,40.00,1,0,6,0.00
2013-12-28,49.0,45.2,44.0,-99.9,-99.9,-99.9,0,0,100,0.00,40.00,2,0,4,0.00
2013-12-29,56.0,47.5,38.0,-99.9,-99.9,-99.9,0,0,100,0.00,40.00,0,0,4,0.00
2013-12-30,54.0,45.3,35.0,-99.9,-99.9,-99.9,0,0,100,0.00,40.00,0,0,0,0.00
2013-12-31,47.0,43.1,41.0,-99.9,-99.9,-99.9,0,0,100,0.00,40.00,3,0,6,0.00
2014-1-1,53.0,47.2,41.0,-99.9,-99.9,-99.9,0,0,100,0.00,40.00,0,0,0,0.00
2014-1-2,56.0,53.0,50.0,-99.9,-99.9,-99.9,0,0,100,0.00,40.00,0,0,3,0.00